Hourly Weather Barnstable

Today, 30 September, Wednesday

Time Temperature Precipitation Wind Pressure Humidity
00:00 +23°C° 0.2 mm 6 mps 755 mmHg 93%
01:00 +23°C° 0 mm 6 mps 754 mmHg 89%
02:00 +23°C° 0.2 mm 8 mps 753 mmHg 89%
03:00 +23°C° 0.2 mm 9 mps 752 mmHg 89%
04:00 +24°C° 0.2 mm 11 mps 751 mmHg 89%
05:00 +24°C° 0.3 mm 12 mps 751 mmHg 89%
06:00 +24°C° 0.3 mm 13 mps 751 mmHg 89%
07:00 +24°C° 0.3 mm 14 mps 750 mmHg 89%
08:00 +23°C° 1.3 mm 13 mps 751 mmHg 87%
09:00 +22°C° 1.3 mm 11 mps 751 mmHg 85%
10:00 +22°C° 1.3 mm 10 mps 751 mmHg 82%
11:00 +22°C° 0 mm 10 mps 752 mmHg 75%
12:00 +22°C° 0 mm 10 mps 752 mmHg 68%
13:00 +23°C° 0 mm 9 mps 753 mmHg 61%
14:00 +22°C° 0 mm 9 mps 753 mmHg 59%
15:00 +22°C° 0 mm 8 mps 754 mmHg 57%
16:00 +22°C° 0 mm 8 mps 754 mmHg 55%
17:00 +21°C° 0 mm 7 mps 755 mmHg 58%
18:00 +20°C° 0 mm 7 mps 756 mmHg 61%
19:00 +19°C° 0 mm 6 mps 756 mmHg 65%
20:00 +19°C° 0 mm 6 mps 757 mmHg 65%
21:00 +18°C° 0 mm 7 mps 757 mmHg 66%
22:00 +18°C° 0 mm 7 mps 757 mmHg 67%
23:00 +18°C° 0 mm 7 mps 757 mmHg 68%

Tomorrow, 1 October, Thursday

Time Temperature Precipitation Wind Pressure Humidity
00:00 +19°C° 0 mm 6 mps 757 mmHg 70%
01:00 +19°C° 0 mm 6 mps 757 mmHg 71%
02:00 +19°C° 0 mm 6 mps 757 mmHg 71%
03:00 +17°C° 0 mm 6 mps 757 mmHg 70%
04:00 +17°C° 0 mm 6 mps 757 mmHg 69%
05:00 +19°C° 0 mm 6 mps 757 mmHg 69%
06:00 +19°C° 0 mm 5 mps 758 mmHg 69%
07:00 +20°C° 0 mm 5 mps 758 mmHg 69%
08:00 +21°C° 0 mm 6 mps 758 mmHg 64%
09:00 +22°C° 0 mm 6 mps 758 mmHg 59%
10:00 +23°C° 0 mm 6 mps 758 mmHg 54%
11:00 +23°C° 0 mm 7 mps 758 mmHg 54%
12:00 +23°C° 0 mm 7 mps 758 mmHg 54%
13:00 +23°C° 0 mm 7 mps 758 mmHg 54%
14:00 +22°C° 0 mm 7 mps 758 mmHg 57%
15:00 +22°C° 0 mm 7 mps 758 mmHg 59%
16:00 +21°C° 0 mm 6 mps 758 mmHg 62%
17:00 +20°C° 0 mm 6 mps 758 mmHg 66%
18:00 +19°C° 0 mm 5 mps 759 mmHg 70%
19:00 +18°C° 0 mm 4 mps 759 mmHg 74%
20:00 +18°C° 0 mm 4 mps 759 mmHg 78%
21:00 +18°C° 0 mm 4 mps 759 mmHg 81%
22:00 +17°C° 0 mm 4 mps 760 mmHg 85%
23:00 +17°C° 0 mm 3 mps 759 mmHg 87%

Day after tomorrow, 2 October, Friday

Time Temperature Precipitation Wind Pressure Humidity
00:00 +17°C° 0 mm 3 mps 759 mmHg 88%
01:00 +17°C° 0 mm 3 mps 759 mmHg 90%
02:00 +17°C° 0 mm 2 mps 759 mmHg 90%
03:00 +16°C° 0 mm 2 mps 759 mmHg 90%
04:00 +16°C° 0 mm 1 mps 759 mmHg 90%
05:00 +18°C° 0 mm 1 mps 760 mmHg 87%
06:00 +18°C° 0 mm 1 mps 760 mmHg 85%
07:00 +17°C° 0 mm 0 mps 760 mmHg 82%
08:00 +20°C° 0.1 mm 1 mps 760 mmHg 79%
09:00 +20°C° 0.1 mm 1 mps 760 mmHg 75%
10:00 +21°C° 0.1 mm 1 mps 760 mmHg 72%
11:00 +19°C° 0.2 mm 2 mps 760 mmHg 68%
12:00 +18°C° 0.2 mm 4 mps 760 mmHg 65%
13:00 +16°C° 0.2 mm 5 mps 760 mmHg 61%
14:00 +16°C° 0 mm 5 mps 760 mmHg 65%
15:00 +15°C° 0 mm 6 mps 760 mmHg 70%
16:00 +14°C° 0 mm 6 mps 760 mmHg 74%
17:00 +13°C° 0 mm 5 mps 760 mmHg 77%
18:00 +13°C° 0 mm 4 mps 761 mmHg 80%
19:00 +13°C° 0 mm 2 mps 761 mmHg 84%
20:00 +13°C° 0 mm 2 mps 761 mmHg 86%
21:00 +12°C° 0 mm 2 mps 762 mmHg 89%
22:00 +10°C° 0 mm 2 mps 762 mmHg 92%
23:00 +10°C° 0 mm 2 mps 762 mmHg 90%

3 October, Saturday

Time Temperature Precipitation Wind Pressure Humidity
00:00 +10°C° 0 mm 2 mps 762 mmHg 89%
01:00 +10°C° 0 mm 2 mps 762 mmHg 87%
02:00 +10°C° 0 mm 2 mps 762 mmHg 88%
03:00 +10°C° 0 mm 2 mps 762 mmHg 88%
04:00 +10°C° 0 mm 3 mps 762 mmHg 88%
05:00 +10°C° 0 mm 2 mps 763 mmHg 86%
06:00 +12°C° 0 mm 2 mps 763 mmHg 83%
07:00 +13°C° 0 mm 2 mps 764 mmHg 80%
08:00 +15°C° 0 mm 1 mps 764 mmHg 71%
09:00 +19°C° 0 mm 1 mps 764 mmHg 61%
10:00 +21°C° 0 mm 1 mps 764 mmHg 52%
11:00 +22°C° 0 mm 1 mps 764 mmHg 50%
12:00 +22°C° 0 mm 1 mps 764 mmHg 48%
13:00 +23°C° 0 mm 2 mps 763 mmHg 46%
14:00 +21°C° 0 mm 2 mps 763 mmHg 51%
15:00 +20°C° 0 mm 2 mps 763 mmHg 56%
16:00 +19°C° 0 mm 2 mps 763 mmHg 61%
17:00 +18°C° 0 mm 3 mps 764 mmHg 67%
18:00 +16°C° 0 mm 3 mps 764 mmHg 74%
19:00 +14°C° 0 mm 3 mps 764 mmHg 80%
20:00 +14°C° 0.1 mm 3 mps 764 mmHg 80%
21:00 +14°C° 0.1 mm 3 mps 765 mmHg 80%
22:00 +13°C° 0.1 mm 4 mps 765 mmHg 80%
23:00 +13°C° 0.1 mm 3 mps 765 mmHg 80%

4 October, Sunday

Time Temperature Precipitation Wind Pressure Humidity
00:00 +12°C° 0.1 mm 3 mps 764 mmHg 79%
01:00 +11°C° 0.1 mm 3 mps 764 mmHg 79%
02:00 +11°C° 0 mm 3 mps 764 mmHg 77%
03:00 +10°C° 0 mm 2 mps 765 mmHg 75%
04:00 +10°C° 0 mm 2 mps 765 mmHg 74%
05:00 +10°C° 0 mm 2 mps 765 mmHg 72%
06:00 +10°C° 0 mm 2 mps 765 mmHg 71%
07:00 +12°C° 0 mm 2 mps 765 mmHg 70%
08:00 +15°C° 0 mm 2 mps 765 mmHg 61%
09:00 +17°C° 0 mm 2 mps 765 mmHg 52%
10:00 +21°C° 0 mm 1 mps 765 mmHg 43%
11:00 +21°C° 0 mm 1 mps 765 mmHg 42%
12:00 +21°C° 0 mm 1 mps 765 mmHg 41%
13:00 +21°C° 0 mm 1 mps 765 mmHg 40%
14:00 +20°C° 0 mm 2 mps 765 mmHg 42%
15:00 +19°C° 0 mm 3 mps 764 mmHg 44%
16:00 +18°C° 0 mm 3 mps 764 mmHg 46%
17:00 +17°C° 0 mm 4 mps 764 mmHg 50%
18:00 +15°C° 0 mm 4 mps 764 mmHg 53%
19:00 +14°C° 0 mm 4 mps 764 mmHg 57%
20:00 +14°C° 0 mm 4 mps 764 mmHg 55%
21:00 +14°C° 0 mm 4 mps 765 mmHg 54%
22:00 +13°C° 0 mm 4 mps 765 mmHg 52%
23:00 +13°C° 0 mm 3 mps 764 mmHg 51%

5 October, Monday

Time Temperature Precipitation Wind Pressure Humidity
00:00 +13°C° 0 mm 3 mps 764 mmHg 49%
01:00 +13°C° 0 mm 3 mps 764 mmHg 48%
02:00 +13°C° 0 mm 4 mps 764 mmHg 57%
03:00 +12°C° 0 mm 4 mps 764 mmHg 65%
04:00 +12°C° 0 mm 4 mps 764 mmHg 74%
05:00 +11°C° 0.2 mm 3 mps 764 mmHg 79%
06:00 +12°C° 0.2 mm 2 mps 764 mmHg 84%
07:00 +12°C° 0.2 mm 1 mps 764 mmHg 89%
08:00 +12°C° 0.7 mm 1 mps 764 mmHg 90%
09:00 +12°C° 0.7 mm 1 mps 764 mmHg 90%
10:00 +12°C° 0.7 mm 0 mps 764 mmHg 90%
11:00 +15°C° 0.1 mm 1 mps 764 mmHg 83%
12:00 +16°C° 0.1 mm 1 mps 764 mmHg 76%
13:00 +19°C° 0.1 mm 1 mps 764 mmHg 69%
14:00 +18°C° 0 mm 1 mps 764 mmHg 70%
15:00 +18°C° 0 mm 1 mps 764 mmHg 71%
16:00 +16°C° 0 mm 2 mps 764 mmHg 72%
17:00 +15°C° 0 mm 2 mps 765 mmHg 76%
18:00 +14°C° 0 mm 2 mps 765 mmHg 80%
19:00 +13°C° 0 mm 2 mps 765 mmHg 85%
20:00 +12°C° 0 mm 2 mps 766 mmHg 86%
21:00 +12°C° 0 mm 2 mps 766 mmHg 86%
22:00 +12°C° 0 mm 2 mps 766 mmHg 87%
23:00 +12°C° 0 mm 2 mps 766 mmHg 87%
Show more